SCP
0 0 0 0 0 0 0 0 0 0 0 0 0 0 0 0 0 0 0 0 0 0 0 0 0 0 0 0 0 0 -0 0 0 0 0 0 0 0 0 0 0 0 0 0
0 0 0 0 0 0 0 0 0 0 0 0 0 0 0 0 0 0 0 0 0 0 0 0 0 0 0 0 0 0 -0 0 0 0 0 -0 0 0 0 0 0 0 0 0
0 0 0 0 0 0 0 0 0 0 0 0 0 0 0 0 0 0 0 0 0 0 0 0 0 0 0 0 0 0 0 0 0 0 0 -0 0 0 0 0 0 0 0 0
0 0 0 0 0 0 0 0 0 0 0 0 0 0 0 0 0 0 0 0 0 0 0 0 0 0 0 0 0 0 0 -0 0 0 0 0 0 0 0 0 0 0 0 0
0 0 0 0 0 0 0 0 0 0 0 0 0 0 0 0 0 0 0 0 0 0 0 0 0 0 0 0 0 0 0 -0 0 0 -0 0 0 0 0 0 0 0 0 0
0 0 0 0 0 0 0 0 0 0 0 0 0 0 0 0 0 0 0 0 0 0 0 0 0 0 0 0 0 0 0 0 0 -0 -0 0 0 0 0 0 0 1 0 0
0 0 0 0 0 0 0 0 0 0 0 0 0 0 0 0 0 0 0 0 0 0 0 -0 0 0 -0 -0 0 0 -0 0 0 0 0 0 0 0 0 0 0 1 1 0
0 0 0 0 0 0 0 0 0 0 0 0 0 0 0 0 0 0 0 0 0 0 0 0 -0 -0 -0 -0 0 -0 0 0 0 0 0 0 0 0 0 0 0 0 0 0
0 0 0 0 0 0 0 0 0 0 0 0 0 0 0 0 0 0 0 0 0 0 0 0 -0 -0 -0 0 0 0 0 0 0 0 0 0 0 0 1 0 0 1 1 0
0 0 0 0 0 0 0 0 0 0 0 0 0 0 0 0 0 0 0 0 0 0 0 -0 -0 -0 -0 0 0 0 0 0 0 0 0 0 0 0 0 0 0 0 1 0
0 0 0 0 0 0 0 0 0 0 0 0 0 0 0 0 0 0 0 0 0 0 -0 -0 -0 -0 -0 0 0 0 0 0 0 0 0 0 0 0 0 0 1 -0 0 0
0 0 0 0 0 0 0 0 0 0 0 0 0 0 0 0 0 0 0 0 0 0 -0 0 -0 -0 -0 -0 0 0 0 0 0 0 0 0 0 0 0 0 0 -0 0 0
0 0 0 0 0 0 0 0 0 0 0 0 0 0 0 0 0 0 0 0 0 0 0 -0 -0 -0 -0 -0 -0 0 0 0 0 0 0 0 -0 0 0 0 1 0 0 -0
0 0 0 0 0 0 0 0 0 0 0 0 0 0 0 0 0 0 0 0 0 0 -0 -0 -0 -0 -0 -0 -0 0 0 0 0 0 0 0 0 0 0 0 0 0 0 -0
0 0 0 0 0 0 0 0 0 0 0 0 0 0 0 0 0 0 0 -0 0 0 -0 0 0 -0 -0 -0 -0 0 0 0 0 0 0 -0 0 0 0 -0 -0 -0 -0 -0
0 0 0 0 0 0 0 0 0 0 0 0 0 0 0 0 0 0 0 -0 0 0 0 -0 -0 0 -0 -0 0 0 0 0 -0 0 -0 -0 0 0 -0 0 0 -0 -0 -0
0 0 0 0 0 0 0 0 0 0 0 0 0 0 0 0 0 0 0 -0 -0 0 0 0 0 0 -0 -0 0 0 0 0 0 0 0 -0 0 0 0 0 0 -0 -0 -0
0 0 0 0 0 0 0 0 0 0 0 0 0 0 0 0 -0 0 -0 0 -0 0 0 0 0 0 0 -0 0 0 0 0 -0 -0 0 -0 0 0 0 0 -0 -0 -0 -0
0 0 0 0 0 0 0 0 0 0 0 0 0 0 0 0 0 -0 -0 0 0 0 0 0 0 0 0 0 0 0 0 0 -0 0 0 0 0 0 0 -0 -0 -0 -0 -0
0 0 0 0 0 0 0 0 0 0 0 0 0 0 0 0 0 0 0 0 0 0 -0 0 0 0 0 0 0 0 0 0 0 0 0 0 0 0 0 0 0 -0 -0 -0
0 0 0 0 0 0 0 0 0 0 0 0 0 0 0 0 0 0 0 -0 0 0 0 0 0 0 0 0 0 0 0 0 0 0 0 0 0 0 0 0 -0 -0 -0 -0
0 0 0 0 0 0 0 0 0 0 0 0 0 0 0 0 0 0 0 -0 0 -0 0 0 0 0 0 0 0 0 0 0 0 0 0 0 0 0 0 0 0 -0 -0 -0
0 0 0 0 0 0 0 0 0 0 0 0 -0 -0 -0 0 0 0 -0 -0 0 0 0 0 0 -0 0 -0 0 0 0 0 0 0 0 0 0 0 0 0 -0 -0 -0 -0
0 0 0 0 0 0 0 0 0 0 0 -0 -0 -0 -0 0 0 0 0 -0 0 0 0 0 -0 -0 0 -0 0 0 -0 0 0 0 0 0 0 0 0 0 -0 0 0 0
0 0 0 0 0 0 0 0 0 0 0 -0 -0 -0 -0 -0 0 0 0 0 0 0 0 -0 -0 0 -0 0 0 0 0 -0 -0 0 0 0 0 0 0 0 0 0 0 0
0 0 0 0 0 0 0 0 0 0 0 -0 -0 -0 0 0 0 0 0 0 0 0 -0 -0 -0 -0 -0 0 0 0 0 0 0 0 0 0 0 0 0 0 0 0 0 0
0 0 0 0 0 0 0 0 0 0 0 -0 -0 0 0 0 0 0 0 0 0 -0 -0 -0 -0 -0 -0 0 0 0 0 0 0 0 0 0 0 0 0 0 0 0 0 0
Wind_Speed_500mb
41 43 45 46 43 32 23 11 5 11 21 9 5 2 9 26 21 36 15 16 13 7 14 10 10 12 13 51 42 34 8 10 11 30 43 15 13 16 18 11 13 6 11 11
40 40 41 42 37 34 31 18 9 7 14 5 6 13 8 10 20 14 11 7 8 6 5 11 9 19 37 51 33 4 11 7 10 27 17 9 12 18 10 12 10 16 13 12
39 41 41 41 31 22 20 11 7 6 6 10 7 11 8 12 28 18 12 12 13 9 11 9 15 34 20 40 37 7 4 8 14 24 24 8 9 30 23 15 11 15 14 18
32 37 38 38 28 16 12 8 5 12 6 7 12 7 7 8 9 6 18 9 11 10 7 13 12 28 21 37 39 8 3 12 9 40 62 44 25 14 25 18 26 19 17 30
34 38 37 34 24 8 2 7 9 12 17 18 12 7 6 9 11 15 16 12 26 23 12 15 31 12 11 15 8 9 8 8 20 51 44 41 28 35 20 25 16 9 23 2
32 36 36 32 23 7 3 1 3 4 10 9 4 6 8 16 18 17 19 37 31 27 30 46 55 50 58 33 15 14 10 3 15 15 26 25 27 15 10 16 13 23 16 18
30 34 35 30 23 12 19 6 6 4 7 2 6 25 28 20 14 16 46 50 28 25 59 68 48 64 59 43 35 31 13 7 7 17 10 25 10 6 12 14 11 11 21 56
28 31 33 27 21 12 29 15 2 5 6 12 28 23 15 38 52 33 40 51 31 60 39 11 12 11 9 19 48 27 26 17 8 10 10 2 4 10 6 8 6 15 41 41
25 27 27 23 21 12 26 29 18 12 11 11 12 14 23 16 11 11 14 60 47 28 8 6 7 7 8 14 27 39 30 33 18 9 6 12 3 11 26 5 8 11 64 52
23 24 24 24 18 15 19 24 29 18 13 36 14 6 8 11 13 12 30 32 39 13 4 5 8 8 1 7 18 15 11 11 29 22 12 7 12 14 29 7 15 46 65 74
22 22 21 20 16 16 17 21 30 27 20 52 69 65 49 43 28 10 30 24 7 11 5 3 5 4 2 6 16 17 9 6 11 10 4 3 18 18 7 10 51 67 61 71
22 21 19 17 13 13 17 22 20 29 35 45 64 71 70 74 67 52 22 17 19 12 6 6 8 8 3 10 7 8 7 6 8 7 6 31 55 38 13 22 67 54 69 65
23 21 17 14 15 15 20 22 24 31 41 59 41 27 35 37 38 40 27 27 31 21 23 6 6 7 4 6 9 19 14 10 4 14 8 16 21 14 42 48 37 48 71 83
22 22 17 14 14 13 17 30 24 29 25 13 28 25 63 77 58 54 59 64 40 36 41 15 6 8 14 9 13 12 10 8 4 10 15 21 15 6 43 69 27 57 74 81
22 22 19 12 16 19 19 25 27 34 32 11 41 88 18 19 43 33 63 69 64 54 17 10 8 9 5 10 7 9 10 11 8 10 6 2 21 34 49 66 69 76 83 77
22 21 15 15 17 18 18 11 7 28 45 15 7 34 59 19 19 30 30 56 69 50 15 13 13 20 10 5 7 18 27 21 16 4 28 20 39 27 54 69 81 84 83 77
21 17 17 17 20 22 23 10 5 18 11 10 13 15 15 24 29 17 23 42 45 43 21 18 21 16 12 6 15 8 13 29 30 23 30 18 10 26 57 74 80 77 73 74
20 16 19 21 24 27 40 26 30 41 20 11 6 10 16 7 9 7 6 9 26 22 14 8 10 9 12 10 33 55 44 30 3 6 5 4 16 35 57 73 79 73 71 71
17 14 17 18 16 19 20 10 11 22 23 9 10 5 8 8 8 9 11 7 5 13 7 9 11 6 14 15 32 44 35 24 11 20 17 45 45 41 71 83 84 89 81 80
13 11 11 10 11 17 22 10 9 18 19 19 14 33 19 23 28 13 11 10 6 5 10 10 7 9 57 66 68 54 23 40 15 24 35 67 68 64 75 83 79 76 81 78
8 10 10 11 14 17 12 8 11 15 10 17 19 41 24 18 10 7 11 5 7 5 5 6 6 8 16 50 53 62 40 31 35 28 40 58 82 86 83 78 74 74 75 77
12 12 20 15 11 11 9 7 8 9 8 10 10 16 35 15 22 9 12 7 4 11 13 3 6 8 13 14 24 33 39 50 29 8 40 53 62 73 79 75 75 75 76 74
25 7 10 12 13 10 11 12 7 7 9 4 18 8 9 14 27 12 7 8 9 11 5 7 5 16 11 6 18 29 14 31 27 23 45 52 68 73 76 73 71 74 79 70
10 8 9 9 10 10 10 9 9 17 12 23 22 6 8 14 6 5 6 9 3 6 6 1 4 9 16 4 2 10 21 27 32 20 60 80 76 73 74 75 73 72 75 69
10 10 10 13 24 28 20 30 41 16 16 16 13 9 10 7 8 3 6 5 7 6 5 4 17 16 22 12 6 15 22 52 35 54 80 78 72 78 82 76 70 65 67 68
11 17 10 24 19 22 13 17 8 9 14 7 4 3 6 11 6 6 10 4 7 5 6 18 21 31 39 45 13 16 26 33 34 66 80 76 82 81 79 77 70 64 64 69
13 17 37 41 32 29 34 17 8 9 7 4 6 6 12 8 5 7 5 4 5 14 23 27 30 32 25 39 23 41 34 38 71 79 78 71 67 67 74 75 73 67 63 60
Wind_Direction_500mb
348 351 353 352 350 358 349 10 20 7 341 13 28 43 347 345 352 10 14 3 14 32 332 298 311 265 305 332 337 327 29 261 271 258 257 197 207 258 162 154 224 240 160 236
344 349 351 352 349 355 5 350 308 351 340 75 338 327 335 337 24 0 354 325 28 352 313 317 243 306 319 309 316 309 348 336 340 321 283 224 197 228 237 122 114 202 161 224
340 346 349 350 346 346 359 2 0 4 341 63 19 358 306 349 334 310 330 297 333 326 304 226 281 302 307 336 322 32 284 206 196 256 265 222 218 232 194 160 134 199 201 158
337 342 345 344 340 332 358 25 5 10 338 334 337 357 296 302 307 322 358 320 310 301 274 285 269 296 300 302 301 232 144 240 240 270 261 251 238 261 187 182 196 178 184 177
335 340 342 338 335 302 331 22 8 351 308 315 324 325 295 293 348 351 309 287 318 308 263 245 294 234 239 241 268 175 234 246 304 284 264 226 234 251 246 217 165 136 135 117
333 337 340 337 333 265 173 66 296 332 287 320 0 240 333 323 344 304 300 315 306 293 287 298 284 266 269 237 194 186 199 158 0 271 205 196 223 236 222 212 169 145 176 174
331 335 337 337 331 246 208 151 11 343 274 283 308 317 316 309 313 286 298 299 287 291 307 308 291 271 257 231 226 190 192 125 190 277 219 186 210 226 197 111 4 115 110 148
327 334 336 335 333 275 213 195 191 307 284 305 298 311 330 329 316 292 283 288 282 310 306 275 284 279 287 240 229 210 213 199 244 252 173 234 56 35 306 142 300 178 136 140
320 331 333 329 331 291 223 208 226 265 304 260 308 316 304 296 305 301 267 311 316 304 239 220 244 294 263 337 322 214 204 198 200 325 184 174 227 297 334 20 15 180 147 151
315 327 330 331 323 307 231 212 221 244 271 282 292 271 296 275 293 285 304 337 325 298 279 243 271 268 1 320 305 8 156 165 208 230 258 254 258 313 341 95 205 168 160 154
310 321 324 324 318 310 249 224 224 244 267 278 277 272 263 263 269 257 298 327 0 317 329 273 249 266 112 293 318 294 281 264 178 218 164 280 306 332 214 184 151 164 165 156
306 315 315 312 309 295 265 256 246 260 267 265 282 283 272 271 283 266 252 244 308 279 306 15 310 242 144 65 282 295 294 100 271 321 226 106 261 241 147 142 160 168 155 159
304 308 303 294 294 285 277 268 265 273 286 294 281 277 298 285 283 280 236 246 240 240 250 283 283 312 117 154 245 270 250 191 272 355 344 109 161 202 98 143 145 162 165 164
297 301 291 276 279 285 277 266 271 262 271 278 285 306 296 304 281 261 253 248 252 252 279 292 256 238 193 207 208 228 230 24 284 266 21 313 343 41 161 128 184 160 162 163
293 298 289 276 256 273 278 279 268 254 244 279 293 303 314 281 295 274 242 239 250 251 256 234 226 241 253 278 314 268 213 180 136 230 74 301 309 290 187 175 163 166 162 156
287 296 283 283 260 263 287 306 339 232 235 275 294 295 302 311 285 257 251 236 234 227 232 236 230 232 207 267 258 269 231 231 234 231 330 333 329 207 191 162 162 165 167 164
280 285 284 282 259 242 236 249 58 107 248 250 285 282 281 300 305 275 251 228 223 224 234 233 246 258 213 237 257 239 276 266 276 310 323 352 2 184 172 163 159 162 160 162
273 271 279 279 270 262 264 265 265 267 292 258 264 269 287 278 295 287 327 296 213 223 224 220 207 206 217 255 248 260 254 268 165 11 205 272 231 175 163 162 159 157 157 158
266 259 269 278 251 250 282 294 258 221 219 266 252 277 283 292 348 316 339 287 245 234 212 222 180 202 225 231 248 265 268 237 194 154 167 182 199 195 164 161 160 155 155 160
265 247 242 245 249 258 276 275 200 206 212 231 248 243 248 294 301 321 326 233 233 233 234 171 208 251 246 246 247 255 249 208 220 161 126 158 170 180 168 163 162 158 158 156
213 224 233 257 280 293 216 236 205 201 230 220 241 222 231 249 196 206 221 290 282 267 229 196 240 265 252 259 245 237 249 215 186 170 156 166 177 173 164 165 164 162 163 160
208 261 286 266 219 231 222 219 230 209 243 232 215 236 211 239 209 169 199 228 195 251 159 227 261 265 278 230 248 215 200 196 185 202 172 164 174 175 171 167 167 167 166 163
245 262 232 229 178 233 219 197 206 254 220 304 354 329 266 219 222 212 183 226 231 119 188 230 258 329 21 183 214 190 190 190 189 201 154 177 177 172 170 168 172 169 167 168
212 246 233 235 207 234 203 220 222 254 326 343 343 324 65 312 290 243 236 227 312 264 255 295 285 334 24 64 21 191 207 119 129 182 171 172 173 173 176 178 175 171 170 172
230 221 229 236 244 283 296 266 254 291 9 350 338 302 187 246 271 242 333 262 244 245 281 272 4 16 17 353 325 236 223 194 184 169 170 172 174 175 175 175 176 177 178 178
235 228 241 260 289 295 300 352 42 31 8 347 355 302 298 239 210 191 227 250 230 245 237 342 4 347 325 328 319 269 223 224 184 173 170 175 177 177 174 173 176 179 181 185
229 225 230 241 273 276 288 303 326 22 52 20 349 263 238 289 209 226 223 260 300 320 326 329 336 345 337 338 267 262 245 215 179 174 173 178 178 174 171 172 178 179 185 185
Wind_Speed_850mb
41 43 45 46 43 32 23 11 5 11 21 9 5 2 9 26 21 36 15 16 13 7 14 10 10 12 13 51 42 34 8 10 11 30 43 15 13 16 18 11 13 6 11 11
40 40 41 42 37 34 31 18 9 7 14 5 6 13 8 10 20 14 11 7 8 6 5 11 9 19 37 51 33 4 11 7 10 27 17 9 12 18 10 12 10 16 13 12
39 41 41 41 31 22 20 11 7 6 6 10 7 11 8 12 28 18 12 12 13 9 11 9 15 34 20 40 37 7 4 8 14 24 24 8 9 30 23 15 11 15 14 18
32 37 38 38 28 16 12 8 5 12 6 7 12 7 7 8 9 6 18 9 11 10 7 13 12 28 21 37 39 8 3 12 9 40 62 44 25 14 25 18 26 19 17 30
34 38 37 34 24 8 2 7 9 12 17 18 12 7 6 9 11 15 16 12 26 23 12 15 31 12 11 15 8 9 8 8 20 51 44 41 28 35 20 25 16 9 23 2
32 36 36 32 23 7 3 1 3 4 10 9 4 6 8 16 18 17 19 37 31 27 30 46 55 50 58 33 15 14 10 3 15 15 26 25 27 15 10 16 13 23 16 18
30 34 35 30 23 12 19 6 6 4 7 2 6 25 28 20 14 16 46 50 28 25 59 68 48 64 59 43 35 31 13 7 7 17 10 25 10 6 12 14 11 11 21 56
28 31 33 27 21 12 29 15 2 5 6 12 28 23 15 38 52 33 40 51 31 60 39 11 12 11 9 19 48 27 26 17 8 10 10 2 4 10 6 8 6 15 41 41
25 27 27 23 21 12 26 29 18 12 11 11 12 14 23 16 11 11 14 60 47 28 8 6 7 7 8 14 27 39 30 33 18 9 6 12 3 11 26 5 8 11 64 52
23 24 24 24 18 15 19 24 29 18 13 36 14 6 8 11 13 12 30 32 39 13 4 5 8 8 1 7 18 15 11 11 29 22 12 7 12 14 29 7 15 46 65 74
22 22 21 20 16 16 17 21 30 27 20 52 69 65 49 43 28 10 30 24 7 11 5 3 5 4 2 6 16 17 9 6 11 10 4 3 18 18 7 10 51 67 61 71
22 21 19 17 13 13 17 22 20 29 35 45 64 71 70 74 67 52 22 17 19 12 6 6 8 8 3 10 7 8 7 6 8 7 6 31 55 38 13 22 67 54 69 65
23 21 17 14 15 15 20 22 24 31 41 59 41 27 35 37 38 40 27 27 31 21 23 6 6 7 4 6 9 19 14 10 4 14 8 16 21 14 42 48 37 48 71 83
22 22 17 14 14 13 17 30 24 29 25 13 28 25 63 77 58 54 59 64 40 36 41 15 6 8 14 9 13 12 10 8 4 10 15 21 15 6 43 69 27 57 74 81
22 22 19 12 16 19 19 25 27 34 32 11 41 88 18 19 43 33 63 69 64 54 17 10 8 9 5 10 7 9 10 11 8 10 6 2 21 34 49 66 69 76 83 77
22 21 15 15 17 18 18 11 7 28 45 15 7 34 59 19 19 30 30 56 69 50 15 13 13 20 10 5 7 18 27 21 16 4 28 20 39 27 54 69 81 84 83 77
21 17 17 17 20 22 23 10 5 18 11 10 13 15 15 24 29 17 23 42 45 43 21 18 21 16 12 6 15 8 13 29 30 23 30 18 10 26 57 74 80 77 73 74
20 16 19 21 24 27 40 26 30 41 20 11 6 10 16 7 9 7 6 9 26 22 14 8 10 9 12 10 33 55 44 30 3 6 5 4 16 35 57 73 79 73 71 71
17 14 17 18 16 19 20 10 11 22 23 9 10 5 8 8 8 9 11 7 5 13 7 9 11 6 14 15 32 44 35 24 11 20 17 45 45 41 71 83 84 89 81 80
13 11 11 10 11 17 22 10 9 18 19 19 14 33 19 23 28 13 11 10 6 5 10 10 7 9 57 66 68 54 23 40 15 24 35 67 68 64 75 83 79 76 81 78
8 10 10 11 14 17 12 8 11 15 10 17 19 41 24 18 10 7 11 5 7 5 5 6 6 8 16 50 53 62 40 31 35 28 40 58 82 86 83 78 74 74 75 77
12 12 20 15 11 11 9 7 8 9 8 10 10 16 35 15 22 9 12 7 4 11 13 3 6 8 13 14 24 33 39 50 29 8 40 53 62 73 79 75 75 75 76 74
25 7 10 12 13 10 11 12 7 7 9 4 18 8 9 14 27 12 7 8 9 11 5 7 5 16 11 6 18 29 14 31 27 23 45 52 68 73 76 73 71 74 79 70
10 8 9 9 10 10 10 9 9 17 12 23 22 6 8 14 6 5 6 9 3 6 6 1 4 9 16 4 2 10 21 27 32 20 60 80 76 73 74 75 73 72 75 69
10 10 10 13 24 28 20 30 41 16 16 16 13 9 10 7 8 3 6 5 7 6 5 4 17 16 22 12 6 15 22 52 35 54 80 78 72 78 82 76 70 65 67 68
11 17 10 24 19 22 13 17 8 9 14 7 4 3 6 11 6 6 10 4 7 5 6 18 21 31 39 45 13 16 26 33 34 66 80 76 82 81 79 77 70 64 64 69
13 17 37 41 32 29 34 17 8 9 7 4 6 6 12 8 5 7 5 4 5 14 23 27 30 32 25 39 23 41 34 38 71 79 78 71 67 67 74 75 73 67 63 60
Wind_Direction_850mb
348 351 353 352 350 358 349 10 20 7 341 13 28 43 347 345 352 10 14 3 14 32 332 298 311 265 305 332 337 327 29 261 271 258 257 197 207 258 162 154 224 240 160 236
344 349 351 352 349 355 5 350 308 351 340 75 338 327 335 337 24 0 354 325 28 352 313 317 243 306 319 309 316 309 348 336 340 321 283 224 197 228 237 122 114 202 161 224
340 346 349 350 346 346 359 2 0 4 341 63 19 358 306 349 334 310 330 297 333 326 304 226 281 302 307 336 322 32 284 206 196 256 265 222 218 232 194 160 134 199 201 158
337 342 345 344 340 332 358 25 5 10 338 334 337 357 296 302 307 322 358 320 310 301 274 285 269 296 300 302 301 232 144 240 240 270 261 251 238 261 187 182 196 178 184 177
335 340 342 338 335 302 331 22 8 351 308 315 324 325 295 293 348 351 309 287 318 308 263 245 294 234 239 241 268 175 234 246 304 284 264 226 234 251 246 217 165 136 135 117
333 337 340 337 333 265 173 66 296 332 287 320 0 240 333 323 344 304 300 315 306 293 287 298 284 266 269 237 194 186 199 158 0 271 205 196 223 236 222 212 169 145 176 174
331 335 337 337 331 246 208 151 11 343 274 283 308 317 316 309 313 286 298 299 287 291 307 308 291 271 257 231 226 190 192 125 190 277 219 186 210 226 197 111 4 115 110 148
327 334 336 335 333 275 213 195 191 307 284 305 298 311 330 329 316 292 283 288 282 310 306 275 284 279 287 240 229 210 213 199 244 252 173 234 56 35 306 142 300 178 136 140
320 331 333 329 331 291 223 208 226 265 304 260 308 316 304 296 305 301 267 311 316 304 239 220 244 294 263 337 322 214 204 198 200 325 184 174 227 297 334 20 15 180 147 151
315 327 330 331 323 307 231 212 221 244 271 282 292 271 296 275 293 285 304 337 325 298 279 243 271 268 1 320 305 8 156 165 208 230 258 254 258 313 341 95 205 168 160 154
310 321 324 324 318 310 249 224 224 244 267 278 277 272 263 263 269 257 298 327 0 317 329 273 249 266 112 293 318 294 281 264 178 218 164 280 306 332 214 184 151 164 165 156
306 315 315 312 309 295 265 256 246 260 267 265 282 283 272 271 283 266 252 244 308 279 306 15 310 242 144 65 282 295 294 100 271 321 226 106 261 241 147 142 160 168 155 159
304 308 303 294 294 285 277 268 265 273 286 294 281 277 298 285 283 280 236 246 240 240 250 283 283 312 117 154 245 270 250 191 272 355 344 109 161 202 98 143 145 162 165 164
297 301 291 276 279 285 277 266 271 262 271 278 285 306 296 304 281 261 253 248 252 252 279 292 256 238 193 207 208 228 230 24 284 266 21 313 343 41 161 128 184 160 162 163
293 298 289 276 256 273 278 279 268 254 244 279 293 303 314 281 295 274 242 239 250 251 256 234 226 241 253 278 314 268 213 180 136 230 74 301 309 290 187 175 163 166 162 156
287 296 283 283 260 263 287 306 339 232 235 275 294 295 302 311 285 257 251 236 234 227 232 236 230 232 207 267 258 269 231 231 234 231 330 333 329 207 191 162 162 165 167 164
280 285 284 282 259 242 236 249 58 107 248 250 285 282 281 300 305 275 251 228 223 224 234 233 246 258 213 237 257 239 276 266 276 310 323 352 2 184 172 163 159 162 160 162
273 271 279 279 270 262 264 265 265 267 292 258 264 269 287 278 295 287 327 296 213 223 224 220 207 206 217 255 248 260 254 268 165 11 205 272 231 175 163 162 159 157 157 158
266 259 269 278 251 250 282 294 258 221 219 266 252 277 283 292 348 316 339 287 245 234 212 222 180 202 225 231 248 265 268 237 194 154 167 182 199 195 164 161 160 155 155 160
265 247 242 245 249 258 276 275 200 206 212 231 248 243 248 294 301 321 326 233 233 233 234 171 208 251 246 246 247 255 249 208 220 161 126 158 170 180 168 163 162 158 158 156
213 224 233 257 280 293 216 236 205 201 230 220 241 222 231 249 196 206 221 290 282 267 229 196 240 265 252 259 245 237 249 215 186 170 156 166 177 173 164 165 164 162 163 160
208 261 286 266 219 231 222 219 230 209 243 232 215 236 211 239 209 169 199 228 195 251 159 227 261 265 278 230 248 215 200 196 185 202 172 164 174 175 171 167 167 167 166 163
245 262 232 229 178 233 219 197 206 254 220 304 354 329 266 219 222 212 183 226 231 119 188 230 258 329 21 183 214 190 190 190 189 201 154 177 177 172 170 168 172 169 167 168
212 246 233 235 207 234 203 220 222 254 326 343 343 324 65 312 290 243 236 227 312 264 255 295 285 334 24 64 21 191 207 119 129 182 171 172 173 173 176 178 175 171 170 172
230 221 229 236 244 283 296 266 254 291 9 350 338 302 187 246 271 242 333 262 244 245 281 272 4 16 17 353 325 236 223 194 184 169 170 172 174 175 175 175 176 177 178 178
235 228 241 260 289 295 300 352 42 31 8 347 355 302 298 239 210 191 227 250 230 245 237 342 4 347 325 328 319 269 223 224 184 173 170 175 177 177 174 173 176 179 181 185
229 225 230 241 273 276 288 303 326 22 52 20 349 263 238 289 209 226 223 260 300 320 326 329 336 345 337 338 267 262 245 215 179 174 173 178 178 174 171 172 178 179 185 185